Weather in Niya

Russia / Irkutsk Oblast     56°33′11″N   106°48′11″E
temp.,
°C
wind,
m/s
gust,
m/s
humid.,
%
clouds,
%
prec.,
mm/h
press.,
hPa
HPBL,
m
26 june, sun
sun2623:00+13sw22845 0.0 100413
02:00+11ssw229189 0.0 100535
05:00+11ssw23955 0.0 100660
08:00+17sw47655 0.0 1005742
11:00+20wsw5757100 0.7 10051536
14:00+23sw574475 1.3 10031894
17:00+21w4865100 0.5 10031126
20:00+16ssw3994100 2.9 1003427
27 june, mon
mon2723:00+15sw31195100 0.3 1003471
02:00+15ssw2499100 1.1 1003133
05:00+14ssw229922 0.1 100364
08:00+18sw248660 0.1 1003539
11:00+24w35525 0.0 10021255
14:00+28wsw34361 0.0 10012042
17:00+30sw363143 0.0 9993007
20:00+26ssw22475 0.0 99820
28 june, tue
tue2823:00+19s227190 0.5 99929
02:00+17sw22811 0.6 100025
05:00+16ssw2284100 0.0 100034
08:00+23ssw1357100 0.0 999325
11:00+29w1338100 0.0 9981608
14:00+32wnw242791 0.0 9972749
17:00+22nw0169100 0.1 999135
20:00+22nw24725 0.4 1000250
29 june, wed
wed2923:00+17wsw009594 1.6 100311
02:00+18nnw1194100 2.6 100314
05:00+16wsw1198100 0.8 100431
08:00+16nnw1398100 2.7 1005331
11:00+15nnw239099 0.8 1006389
14:00+16nnw2378100 0.8 1006439
17:00+15nw2379100 0.1 1006342
20:00+14wnw1190100 0.3 100667
30 june, thu
thu3023:00+12nw2897100 0.9 1007456
02:00+12s1199100 1.9 100831
05:00+10se0099100 0.0 100911
08:00+15n128534 0.0 1009454
11:00+21ne23480 0.0 10071237
14:00+24ene33390 0.0 10051804
17:00+25e32390 0.0 10051946
20:00+21e36560 0.0 1004304